Location: Recife
(8.0585°S, 34.8848°W)
Time: 21:09:10
(UTC-03:00)

Hubble Space Telescope - Pass Details

Date: 28 September 2021
Orbit: 535 x 539 km, 28.5° (Epoch: 26 October)

Event Time Altitude Azimuth Distance (km) Brightness Sun altitude
Rises 19:11:58 0° 284° (WNW) 2,667 5.3 -29.7°
Reaches altitude 10° 19:14:19 10° 276° (W) 1,779 4.3 -30.3°
Enters shadow 19:16:26 25° 256° (WSW) 1,089 2.9 -30.8°
